Hourly Data Report for October 20, 2012

All times are specified in Local Standard Time (LST). Add 1 hour to adjust for Daylight Saving Time where and when it is observed.

IQALUIT CLIMATE
NUNAVUT

63°44'50.000" N
68°32'40.000" W
33.50 m
2402592
71321
XFB

Download Data

Hourly Data (October 2012)
Hourly Data Report for October 20, 2012
Temp Definition
°C
Dew Point Temp Definition
°C
Rel Hum Definition
%
Wind Dir Definition
10's deg

Wind Spd Definition
km/h
Visibility Definition
km
Stn Press Definition
kPa
Hmdx Definition


Wind Chill Definition


Weather Definition


TIME
00:00 -7.0 -7.5 96 4 7   101.99   -11 LegendNANA
01:00 -7.5 -7.6 99 5 7   102.01   -11 LegendNANA
02:00 -9.5 -9.8 98 35 9   102.01   -14 LegendNANA
03:00 -9.9 -10.4 96 28 6   102.02   -13 LegendNANA
04:00 -12.0 -12.8 94 34 9   102.04   -17 LegendNANA
05:00 -11.9 -12.7 94 33 6   102.08   -16 LegendNANA
06:00 -11.1 -12.0 93 32 9   102.09   -16 LegendNANA
07:00 -12.1 -13.3 91 33 17   102.13   -20 LegendNANA
08:00 -12.3 -13.6 90 32 17   102.13   -20 LegendNANA
09:00 -11.3 -12.8 89 33 15   102.12   -18 LegendNANA
10:00 -9.8 -11.6 87 32 17   102.09   -17 LegendNANA
11:00 -9.8 -11.6 87 33 26   102.03   -19 LegendNANA
12:00 -9.3 -11.3 85 32 19   102.05   -17 LegendNANA
13:00 -8.6 -10.8 84 32 19   102.06   -16 LegendNANA
14:00 -7.1 -10.2 78 33 4   102.06   -9 LegendNANA
15:00 -7.0 -10.0 79 1 4   102.09   -9 LegendNANA
16:00 -8.6 -11.2 81 3 7   102.13   -12 LegendNANA
17:00 -8.9 -11.6 81 4 4   102.18   -11 LegendNANA
18:00 -8.9 -11.6 81 4 11   102.20   -14 LegendNANA
19:00 -11.4 -13.5 84 36 6   102.23   -15 LegendNANA
20:00 -10.6 -12.2 88 36 7   102.22   -15 LegendNANA
21:00 -8.4 -11.2 80 2 6   102.21   -12 LegendNANA
22:00
23:00 -9.8 -12.2 83 34 7   102.20   -14 LegendNANA

Notes on Data Quality.

Legend

  • E = Estimated
  • M = Missing
  • NA = Not Available
  • ‡ = Partner data that is not subject to review by the National Climate Archives
Date modified: